| time (UTC) | temp F | wind direction | speed MPH | gust MPH | rain 1hr in | rain 24hr in | rain mn in | humidity % | barometer mb |
| 20260502203038 | 63 | 63 | 8.0 | 19.0 | 0.00 | 0.00 | 0.00 | 45 | 1019.7 |
| 20260502201537 | 63 | 34 | 12.0 | 16.0 | 0.00 | 0.00 | 0.00 | 46 | 1019.9 |
| 20260502200033 | 62 | 52 | 9.0 | 16.0 | 0.00 | 0.00 | 0.00 | 46 | 1020.2 |
| 20260502194533 | 61 | 59 | 14.0 | 16.0 | 0.00 | 0.00 | 0.00 | 46 | 1020.3 |
| 20260502193034 | 62 | 57 | 8.0 | 20.0 | 0.00 | 0.00 | 0.00 | 48 | 1020.6 |
| 20260502191530 | 61 | 36 | 12.0 | 16.0 | 0.00 | 0.00 | 0.00 | 48 | 1020.7 |
| 20260502190031 | 61 | 56 | 12.0 | 17.0 | 0.00 | 0.00 | 0.00 | 46 | 1020.9 |
| 20260502184531 | 62 | 60 | 6.0 | 14.0 | 0.00 | 0.01 | 0.00 | 45 | 1021.2 |
| 20260502183024 | 62 | 65 | 9.0 | 13.0 | 0.00 | 0.01 | 0.00 | 47 | 1021.3 |
| 20260502181521 | 61 | 103 | 6.0 | 12.0 | 0.00 | 0.01 | 0.00 | 47 | 1021.4 |
| 20260502163001 | 57 | 83 | 8.0 | 16.0 | 0.00 | 0.03 | 0.00 | 53 | 1022.3 |
| 20260502161601 | 57 | 109 | 8.0 | 14.0 | 0.00 | 0.03 | 0.00 | 53 | 1022.2 |
| 20260502151557 | 54 | 133 | 9.0 | 13.0 | 0.00 | 0.03 | 0.00 | 61 | 1022.1 |
| 20260502123014 | 52 | 109 | 7.0 | 12.0 | 0.00 | 0.03 | 0.00 | 71 | 1020.3 |
| 20260502121516 | 52 | 107 | 6.0 | 12.0 | 0.00 | 0.03 | 0.00 | 73 | 1020.0 |
| 20260502114512 | 52 | 123 | 12.0 | 16.0 | 0.00 | 0.03 | 0.00 | 74 | 1020.3 |
| 20260502113016 | 52 | 146 | 10.0 | 13.0 | 0.00 | 0.03 | 0.00 | 74 | 1020.1 |
| 20260502111509 | 52 | 145 | 8.0 | 12.0 | 0.00 | 0.03 | 0.00 | 74 | 1020.1 |
| 20260502110009 | 52 | 144 | 8.0 | 16.0 | 0.00 | 0.03 | 0.00 | 74 | 1020.1 |
| 20260502104507 | 52 | 148 | 9.0 | 14.0 | 0.00 | 0.03 | 0.00 | 74 | 1020.0 |
| 20260502103006 | 52 | 145 | 12.0 | 15.0 | 0.00 | 0.03 | 0.00 | 73 | 1019.9 |
| 20260502101503 | 52 | 163 | 8.0 | 15.0 | 0.00 | 0.03 | 0.00 | 72 | 1020.0 |
| 20260502100116 | 52 | 140 | 11.0 | 13.0 | 0.00 | 0.03 | 0.00 | 71 | 1019.9 |
| 20260502070041 | 54 | 67 | 7.0 | 13.0 | 0.00 | 0.09 | 0.00 | 66 | 1018.4 |
| 20260502064542 | 54 | 66 | 4.0 | 13.0 | 0.00 | 0.09 | 0.00 | 65 | 1018.4 |
| 20260502063039 | 54 | 60 | 9.0 | 14.0 | 0.00 | 0.09 | 0.00 | 65 | 1018.3 |
| 20260502061535 | 54 | 75 | 11.0 | 14.0 | 0.00 | 0.09 | 0.00 | 65 | 1018.2 |
| 20260502060032 | 54 | 66 | 12.0 | 16.0 | 0.00 | 0.09 | 0.00 | 65 | 1017.9 |
| 20260502054529 | 54 | 68 | 12.0 | 16.0 | 0.00 | 0.09 | 0.08 | 65 | 1018.0 |
| 20260502053029 | 55 | 61 | 11.0 | 16.0 | 0.00 | 0.09 | 0.08 | 64 | 1017.9 |
| 20260502051522 | 55 | 70 | 13.0 | 17.0 | 0.00 | 0.09 | 0.08 | 63 | 1017.8 |
| 20260502050023 | 55 | 111 | 7.0 | 14.0 | 0.00 | 0.09 | 0.08 | 62 | 1017.7 |
| 20260502044516 | 56 | 126 | 8.0 | 16.0 | 0.00 | 0.09 | 0.08 | 62 | 1017.4 |
| 20260502043017 | 56 | 77 | 8.0 | 15.0 | 0.00 | 0.09 | 0.08 | 62 | 1017.2 |
| 20260502041513 | 56 | 44 | 5.0 | 16.0 | 0.00 | 0.09 | 0.08 | 62 | 1017.1 |
| 20260502040013 | 56 | 113 | 5.0 | 16.0 | 0.00 | 0.09 | 0.08 | 62 | 1016.7 |
| 20260502034514 | 56 | 104 | 11.0 | 18.0 | 0.00 | 0.09 | 0.08 | 61 | 1016.7 |
| 20260502033010 | 56 | 98 | 7.0 | 18.0 | 0.00 | 0.09 | 0.08 | 61 | 1016.5 |
| 20260502031509 | 57 | 71 | 11.0 | 18.0 | 0.00 | 0.09 | 0.08 | 62 | 1016.6 |
| 20260502030009 | 57 | 72 | 15.0 | 21.0 | 0.00 | 0.09 | 0.08 | 62 | 1016.6 |
| 20260502024505 | 58 | 63 | 17.0 | 24.0 | 0.00 | 0.09 | 0.08 | 61 | 1016.3 |
| 20260502023006 | 59 | 57 | 12.0 | 18.0 | 0.00 | 0.09 | 0.08 | 60 | 1015.6 |
| 20260502021602 | 60 | 100 | 9.0 | 17.0 | 0.00 | 0.09 | 0.08 | 58 | 1015.0 |
| 20260502020058 | 60 | 137 | 11.0 | 20.0 | 0.00 | 0.09 | 0.08 | 57 | 1014.7 |
| 20260502014558 | 61 | 96 | 11.0 | 20.0 | 0.00 | 0.09 | 0.08 | 57 | 1014.3 |
| 20260502013058 | 62 | 58 | 9.0 | 22.0 | 0.00 | 0.09 | 0.08 | 56 | 1013.8 |
| 20260502011605 | 62 | 64 | 10.0 | 18.0 | 0.00 | 0.09 | 0.08 | 55 | 1013.4 |
| 20260502010050 | 63 | 71 | 9.0 | 22.0 | 0.00 | 0.09 | 0.08 | 54 | 1013.2 |
| 20260502004600 | 64 | 94 | 10.0 | 16.0 | 0.00 | 0.09 | 0.08 | 52 | 1013.3 |
| 20260502003047 | 64 | 82 | 8.0 | 18.0 | 0.00 | 0.09 | 0.08 | 52 | 1013.0 |
| 20260502001547 | 64 | 125 | 11.0 | 16.0 | 0.00 | 0.09 | 0.08 | 52 | 1013.0 |
| 20260502000104 | 65 | 59 | 14.0 | 18.0 | 0.00 | 0.09 | 0.08 | 51 | 1012.6 |
| 20260501234545 | 65 | 51 | 8.0 | 18.0 | 0.00 | 0.09 | 0.08 | 51 | 1012.6 |
| 20260501233043 | 65 | 66 | 8.0 | 18.0 | 0.00 | 0.09 | 0.08 | 52 | 1012.5 |
| 20260501231550 | 65 | 70 | 11.0 | 16.0 | 0.00 | 0.09 | 0.08 | 50 | 1012.4 |
| 20260501230043 | 64 | 82 | 11.0 | 19.0 | 0.00 | 0.09 | 0.08 | 51 | 1012.2 |
| 20260501224538 | 64 | 53 | 15.0 | 21.0 | 0.00 | 0.09 | 0.08 | 52 | 1012.1 |
| 20260501223037 | 64 | 38 | 18.0 | 23.0 | 0.00 | 0.09 | 0.08 | 52 | 1012.0 |
| 20260501221547 | 63 | 46 | 15.0 | 21.0 | 0.00 | 0.09 | 0.08 | 55 | 1011.9 |
| 20260501220041 | 63 | 33 | 14.0 | 20.0 | 0.00 | 0.09 | 0.08 | 57 | 1012.0 |
| 20260501214531 | 63 | 57 | 13.0 | 19.0 | 0.00 | 0.09 | 0.08 | 59 | 1012.1 |
| 20260501213032 | 63 | 48 | 14.0 | 19.0 | 0.00 | 0.09 | 0.08 | 61 | 1012.2 |
| 20260501211527 | 62 | 68 | 10.0 | 17.0 | 0.00 | 0.09 | 0.08 | 60 | 1012.3 |
| 20260501210024 | 62 | 55 | 12.0 | 19.0 | 0.00 | 0.09 | 0.08 | 62 | 1012.5 |
| 20260501204523 | 61 | 40 | 16.0 | 22.0 | 0.00 | 0.09 | 0.08 | 65 | 1012.4 |